Location: Bellerive
(46.9237°N, 7.0223°E)
Time: 23:15:50
(UTC+00:00)

Cosmos 2151 - Pass Details

Date: 09 April 2020
Orbit: 582 x 600 km, 82.5° (Epoch: 03 June)

Event Time Altitude Azimuth Distance (km) Brightness Sun altitude
Rises 21:01:45 0° 348° (NNW) 2,818 7.4 -25.6°
Reaches altitude 10° 21:03:57 10° 347° (NNW) 1,913 6.4 -25.9°
Enters shadow 21:07:32 59° 318° (NW) 678 3.4 -26.3°
